Hourly Data Report for September 14, 2020

SHEARWATER RCS
NOVA SCOTIA
Current Station Operator: ECCC - MSC

44°37'47.000" N
63°30'48.000" W
24.00 m
8205092
71264
AAW

Download Data

Hourly Data (September 2020)
Hourly Data Report for September 14, 2020
TIME Temp Definition
°C
Dew Point Definition
°C
Rel Hum Definition
%
Wind Dir Definition
10's deg

Wind Spd Definition
km/h
Visibility Definition
km
Stn Press Definition
kPa
Hmdx Definition


Wind Chill Definition


Weather Definition


00:00 18.3 17.4 95 20 14   101.23     LegendNANA
01:00 18.5 17.7 95 19 17   101.14     LegendNANA
02:00 18.8 18.1 95 20 13   101.06     LegendNANA
03:00 18.6 17.8 95 22 10   101.00     LegendNANA
04:00 18.6 17.8 95 24 7   100.98     LegendNANA
05:00 18.0 17.2 95 23 8   100.93     LegendNANA
06:00 17.9 17.0 95 22 8   100.87     LegendNANA
07:00 18.1 16.9 93 21 11   100.88     LegendNANA
08:00 18.3 16.8 91 23 11   100.90     LegendNANA
09:00 18.1 16.5 91 23 7   100.92     LegendNANA
10:00 18.8 17.0 89 23 13   100.89     LegendNANA
11:00 19.1 16.8 86 25 9   100.88     LegendNANA
12:00 20.3 17.4 83 23 10   100.85 26   LegendNANA
13:00 21.5 16.8 75 26 12   100.83 27   LegendNANA
14:00 21.4 16.3 73 27 8   100.80 26   LegendNANA
15:00 21.5 13.1 59 28 9   100.78     LegendNANA
16:00 21.1 12.8 59 30 9   100.83     LegendNANA
17:00 20.7 12.9 61 30 10   100.82     LegendNANA
18:00 19.7 11.9 61 31 13   100.90     LegendNANA
19:00 18.2 10.4 60 31 11   100.97     LegendNANA
20:00 16.8 10.1 65 32 11   101.10     LegendNANA
21:00 15.9 9.9 68 33 12   101.19     LegendNANA
22:00 14.7 7.5 62 33 15   101.29     LegendNANA
23:00 13.4 5.8 60 33 14   101.37     LegendNANA

Notes on Data Quality.

Legend

  • E = Estimated
  • M = Missing
  • NA = Not Available*
  • [empty] = Indicates an unobserved value
Date modified: